www.pogodaiklimat.ru

Погода и климат >> Архив погоды >> Филиппины >> Иба


ПОГОДА в Ибе

  • Прогноз погоды в Ибе
  • Монитор погоды в Ибе

АРХИВ ПОГОДЫ в Ибе

Время (UTC), дата Ветер
(напр.,м/с)
 
Видим.   Явления Облачность Т
(С)
Тd
(С)
f
(%)
Тe
(С)
Тes
(С)
Комфортность P
(гПа)
Po
(гПа)
Тmin
(С)
Tmax
(С)
R
(мм)
R24
(мм)
S
(см)
00 9.06 ЮВ 2 20 км мгла {гроза, туман} 8/1 480 м
[Cu med, cong Ac trans Cs]
+29.9 +25.3 76 +43 +47 опасность
перегрева
1009.5 1008.9 +26.0 3
03 9.06 В 6 20 км мгла {туман} 5/1 480 м
[Cu med, cong Ci fib]
+32.8 +25.4 65 +47 +54 опасность
перегрева
1009.1 1008.5
06 9.06 Ю 6
{9}
20 км мгла {туман} 6/4 450 м
[Cb cap Ci fib]
+32.7 +26.7 71 +50 +54 опасность
перегрева
1007.8 1007.2
09 9.06 ЮЗ 2 20 км мгла {туман} 9/4 450 м
[Cb cap Ac As Ci fib]
+31.2 +25.9 73 +46 +47 опасность
перегрева
1007.7 1007.1
12 9.06 СВ 1 18 км мгла {туман} 4/1 480 м
[Cu med, cong Ac cuf Ci fib]
+30.0 +27.2 85 +48 +48 опасность
перегрева
1009.2 1008.6 +33.3
15 9.06 СВ 2 18 км мгла {туман} 9/3 450 м
[Cb cap Ac cuf Cs]
+28.0 +25.1 84 +40 +40 очень
душно
1010.1 1009.5
18 9.06 СВ 1 18 км мгла {туман} 9/1 480 м
[Cu hum Ac cuf Cs]
+27.8 +26.4 92 +42 +42 опасность
перегрева
1007.9 1007.3
21 9.06 В 1 18 км зарница {туман} 9/3 450 м
[Cb cap Ac cuf Cs]
+27.3 +25.0 87 +39 +39 очень
душно
1006.8 1006.2
00 10.06 СВ 1 20 км мгла {туман} 9/3 480 м
[Cu med, cong Ac As Cs]
+29.7 +25.7 79 +44 +47 опасность
перегрева
1008.6 1008.0 +26.5
03 10.06 ЮЗ 3 20 км мгла {гроза, туман} 9/4 450 м
[Cb cap Ac cuf Ci fib]
+32.0 +26.9 74 +49 +55 опасность
перегрева
1008.6 1008.0
06 10.06 ЮЗ 3 20 км мгла {гроза, туман} 9/5 450 м
[Cb cap Ac cuf Ci fib]
+32.4 +27.0 73 +50 +54 опасность
перегрева
1006.9 1006.3
09 10.06 Ю 6
{8}
20 км мгла {туман} 9/6 450 м
[Cb cap Ac As Cs]
+31.0 +26.2 76 +47 +47 опасность
перегрева
1006.8 1006.2
12 10.06 СВ 2
{12}
18 км зарница {гроза, ливн. осадки} 10/4 450 м
[Cb cap Ac As Cs]
+27.6 +25.2 87 +40 +40 очень
душно
1008.9 1008.3 +33.2 1
15 10.06 В 1 18 км гроза без осадков {туман} 9/5 450 м
[Cb cap Ac As Cs]
+27.8 +26.0 90 +42 +42 опасность
перегрева
1009.9 1009.3
18 10.06 В 1 16 км слаб. дождь {гроза} 10/4 480 м
[Sc Ac As Cs]
+26.6 +25.8 95 +39 +39 очень
душно
1008.1 1007.5 18
21 10.06 ЮВ 1 18 км мгла {туман} 9/3 480 м
[Cu med, cong Ac As Cs]
+26.7 +25.0 90 +38 +38 очень
душно
1007.3 1006.7
00 11.06 ЮВ 1 20 км мгла {дождь, туман} 9/3 480 м
[Cu med, cong Ac As Cs]
+28.7 +26.5 88 +44 +47 опасность
перегрева
1008.7 1008.1 +25.5 18
03 11.06 Ю 8 20 км мгла {туман} 9/3 480 м
[Cu med, cong Ac cuf Ci fib]
+32.2 +27.6 77 +52 +53 опасность
перегрева
1009.1 1008.5
06 11.06 Ю 2 18 км гроза без осадков {ливн. осадки, туман} 9/5 420 м
[Cb cap Ac As]
+29.8 +27.4 87 +48 +52 опасность
перегрева
1007.8 1007.2 0.6
09 11.06 СВ 3
{10}
15 км гроза, ливневой дождь 10/5 480 м
[Sc Ac As]
+26.0 +25.1 95 +37 +38 очень
душно
1007.6 1007.0 11
12 11.06 ЮВ 1 15 км в посл. час дождь {гроза} 10/4 480 м
[Sc As op]
+25.4 +24.5 95 +36 +36 очень
душно
1010.5 1009.9 +32.3 55
15 11.06 В 2 16 км слаб. дождь 10/4 480 м
[Sc Ac As]
+25.5 +24.7 95 +36 +36 очень
душно
1011.1 1010.5 9
18 11.06 В 1 18 км в посл. час дождь {туман} 9/1 480 м
[Cu med, cong Ac As Cs]
+25.2 +24.1 94 +35 +35 очень
душно
1009.7 1009.1 10
21 11.06 В 2 18 км мгла {туман} 9/1 480 м
[Cu med, cong Ac As Cs]
+25.4 +24.2 93 +35 +35 очень
душно
1009.4 1008.8 0.2
00 12.06 В 2 20 км мгла {туман} 10/1 480 м
[Cu med, cong Ac As Cs]
+27.1 +25.8 93 +40 +43 очень
душно
1009.8 1009.2 +24.5 66
03 12.06 Ю 3 20 км мгла {туман} 9/3 480 м
[Cu med, cong Ac cuf Cs]
+31.6 +28.7 85 +54 +61 опасность
перегрева
1009.7 1009.1
06 12.06 Ю 3 20 км мгла {туман} 8/3 480 м
[Cu med, cong Ac trans Ci fib]
+31.7 +28.3 82 +53 +59 опасность
перегрева
1008.5 1007.9
09 12.06 ЮВ 3 20 км мгла {туман} 9/3 480 м
[Cu med, cong Ac cuf Cs]
+30.8 +28.0 85 +51 +52 опасность
перегрева
1007.6 1007.0
12 12.06 ЮВ 2 18 км мгла {туман} 9/1 480 м
[Cu med, cong Ac cuf Cs]
+29.6 +27.4 88 +48 +48 опасность
перегрева
1008.8 1008.2 +32.1
15 12.06 В 1 18 км зарница {туман} 6/1 450 м
[Cb cap Ac cuf Ci fib]
+28.7 +26.9 90 +45 +45 опасность
перегрева
1009.8 1009.2
18 12.06 ЮВ 2
{11}
15 км слаб. ливневой дождь {гроза} 9/3 450 м
[Cb cap Ac As]
+27.2 +26.6 97 +42 +42 опасность
перегрева
1009.3 1008.7 7
21 12.06 В 1 18 км зарница {ливн. осадки, туман} 9/4 450 м
[Cb cap Ac As]
+26.3 +25.7 97 +39 +39 очень
душно
1007.9 1007.3 2
00 13.06 СВ 1 18 км слаб. дождь {туман} 9/4 480 м
[Sc Ac As]
+27.3 +26.7 97 +42 +44 опасность
перегрева
1009.8 1009.2 +25.6 16
03 13.06 СВ 3
{12}
18 км гроза, ливневой дождь 10/3 450 м
[Cb cap Ac As]
+25.4 +25.2 99 +37 +40 очень
душно
1010.8 1010.2 38
06 13.06 В 1 18 км слаб. дождь {гроза} 10/1 450 м
[Cb cap Ac cuf Cs]
+26.2 +25.7 97 +39 +47 очень
душно
1009.5 1008.9 48
09 13.06 В 1 20 км в посл. час дождь {гроза, ливн. осадки} 9/3 480 м
[Cu med, cong Ac cuf Cs]
+27.3 +25.9 92 +41 +42 опасность
перегрева
1008.1 1007.5 9
12 13.06 СВ 1 18 км мгла {туман} 9/1 480 м
[Cu med, cong Ac cuf Cs]
+26.8 +26.0 95 +40 +40 очень
душно
1009.1 1008.5 +28.2 9
15 13.06 СВ 1 18 км мгла {гроза, туман} 9/1 480 м
[Cu med, cong Cs]
+26.5 +25.7 95 +39 +39 очень
душно
1009.5 1008.9
18 13.06 В 1 18 км мгла {гроза, туман} 6/1 480 м
[Cu med, cong Ac trans Ci fib]
+26.1 +24.9 93 +37 +37 очень
душно
1007.4 1006.8
21 13.06 СВ 1 18 км гроза без осадков {ливн. осадки, туман} 9/3 450 м
[Cb cap Ac As]
+26.2 +25.6 97 +39 +39 очень
душно
1006.8 1006.2 1
00 14.06 ЮВ 1 20 км мгла {гроза} 6/4 450 м
[Cb cap Ac cuf]
+29.1 +27.4 91 +47 +51 опасность
перегрева
1008.4 1007.8 +24.1 83
03 14.06 ЮВ 5
{14}
18 км осадки на расстоянии {туман} 8/5 450 м
[Cb cap Ac cuf]
+32.3 +29.4 85 +57 +60 опасность
перегрева
1008.6 1008.0
06 14.06 В 1 18 км осадки на расстоянии {гроза, ливн. осадки} 9/3 480 м
[Cu med, cong Ac As]
+27.5 +26.5 94 +42 +48 опасность
перегрева
1007.9 1007.3 8
09 14.06 СВ 1
{9}
15 км гроза, ливневой дождь {туман} 10/3 450 м
[Cb cap Ac As]
+25.7 +24.9 95 +36 +37 очень
душно
1008.1 1007.5 42
12 14.06 В 1 16 км мгла {гроза} 10/3 480 м
[Cu med, cong Ac As]
+25.9 +25.0 95 +37 +37 очень
душно
1008.7 1008.1 +32.3 43
15 14.06 В 1 18 км гроза без осадков {ливн. осадки, туман} 9/4 450 м
[Cb cap Ac As]
+26.2 +25.2 94 +38 +38 очень
душно
1009.2 1008.6 2
18 14.06 ЮВ 3 12 км гроза, ливневой дождь {туман} 10/3 450 м
[Cb cap Ac As]
+25.2 +24.8 98 +36 +36 очень
душно
1008.3 1007.7 31
21 14.06 ЮВ 1
{13}
16 км слаб. ливневой дождь {гроза} 10/1 450 м
[Cb cap Ac As]
+26.1 +25.0 94 +37 +37 очень
душно
1007.6 1007.0 22
00 15.06 В 1 20 км мгла {гроза} 9/1 480 м
[Cu hum Ac As]
+26.4 +24.3 88 +37 +39 очень
душно
1008.9 1008.3 +24.4 104
03 15.06 В 2 20 км гроза без осадков {туман} 9/3 450 м
[Cb cap Ac As]
+28.3 +26.8 92 +44 +50 опасность
перегрева
1008.8 1008.2
06 15.06 В 1 15 км гроза, ливневой дождь 10/3 450 м
[Cb cap As op]
+25.6 +25.1 97 +37 +39 очень
душно
1008.5 1007.9 43
09 15.06 В 1
{11}
18 км слаб. дождь {гроза} 10/3 480 м
[Cu med, cong Ac As Cs]
+25.2 +24.4 95 +35 +36 очень
душно
1007.0 1006.4 19
12 15.06 В 1 18 км мгла {гроза} 8/1 480 м
[Cu hum Ac As Cs]
+25.4 +23.9 91 +35 +35 очень
душно
1008.0 1007.4 +28.3 20
15 15.06 В 2 18 км мгла {туман} 8/1 480 м
[Cu hum Ac As Cs]
+25.2 +23.7 91 +34 +34 очень
душно
1008.5 1007.9
18 15.06 ЮВ 1 12 км мгла {туман} 9/3 480 м
[Cu med, cong Ac As Cs]
+25.5 +23.0 86 +34 +34 очень
душно
1007.3 1006.7
21 15.06 В 1 18 км мгла {туман} 4/1 480 м
[Cu med, cong Ci fib]
+25.5 +23.5 89 +35 +35 очень
душно
1006.6 1006.0

 

Местоположение метеостанции Иба (Филиппины): широта 15.33 долгота 119.96 высота над уровнем моря 5 м.

В архиве по умолчанию представлена погода в Ибе за последнюю неделю. Архивные данные за месяц целиком и за предыдущие месяцы, начиная с января 2011 года, Вы можете получить, выбрав интересующий диапазон дат из раскрывающегося списка и нажав кнопку "Ввод!".


*Определитесь, кто Вы:
робот инопланетянин человек

Внимание! Время в таблицах - всемирное. Для получения местного времени необходимо прибавить поправку, которая равна 8 ч.

Смотрите также архив погоды в соседних городах и на ближайших метеорологических станциях:

Погода на Базе ВВС Clark (Филиппины) (67 км)
Погода в Куби Пойнт (Филиппины) (67 км)
Погода в Дагупане (Филиппины) (89 км)
Погода в Кабанатуане (Филиппины) (109 км)
Погода в Научном саду (Филиппины) (137 км)
Погода в Сангли Пойнт (Филиппины) (138 км)
Погода в Маниле (Филиппины) (138 км)
Погода в Багио (Филиппины) (139 км)
Погода в Аэропорту Ninoy Aquino (Филиппины) (144 км)
Погода в Танае (Филиппины) (176 км)

Пояснения к столбцам:

Ветер - указаны скорость ветра в м/с - средняя за 10 мин, порывы в срок и между сроками (в фигурных скобках) и направление, откуда дует ветер: С - северный, СВ - северо-восточный, В - восточный, ЮВ - юго-восточный, Ю - южный, ЮЗ - юго-западный, З - западный, СЗ - северо-западный.
Видимость - горизонтальная дальность видимости в метрах или километрах. При видимости от 1 до 10 км при отсутствии осадков обычно наблюдается дымка, при ухудшении видимости до 1 км и менее - туман. В сухую погоду видимость может ухудшаться дымом, пылью или мглою.
Явления - указаны атмосферные явления, наблюдавшиеся в срок или в последний час перед сроком; фигурными скобками обозначены явления, наблюдавшиеся между сроками (за 1-3 часа до срока); квадратными скобками обозначены град или гололедные отложения с указанием их диаметра в мм.
Облачность - указаны через наклонную черту общая и нижняя облачность в баллах и высота нижней границы облаков в метрах; квадратными скобками обозначены формы облаков: Ci - перистые, Cs - перисто-слоистые, Cc - перисто-кучевые, Ac - высококучевые, As - высокослоистые, Sc - слоисто-кучевые, Ns - слоисто-дождевые, Cu - кучевые, Cb - кучево-дождевые. Подробнее классификацию облаков см. в Атласе облаков (PDF).
T - Температура воздуха - температура, измеренная на высоте 2 м над землей.
Td - Температура точки росы - температура, при понижении до которой содержащийся в воздухе водяной пар достигнет насыщения.
f - Относительная влажность воздуха - влажноcть воздуха, измеренная на высоте 2 м над землей.
Te - Эффективная температура - температура, которую ощущает одетый по сезону человек в тени. Характеристика душности погоды. При расчете учитывается влияние влажности воздуха и скорости ветра на теплоощущения человека.
Tes - Эффективная температура на солнце - температура, которую ощущает человек, с поправкой на солнечный нагрев. Характеристика знойности погоды. Зависит от высоты солнца над горизонтом, облачности и скорости ветра. Ночью, в пасмурную погоду, а также при ветре 12 м/с и более поправка равна нулю.
P - Атмосферное давление - приведенное к уровню моря атмосферное давление.
Po - Атмосферное давление - измеренное на уровне метеостанции атмосферное давление.
Tmin - Минимальная температура - минимум температуры воздуха на высоте 2 м над землей.
Tmax - Максимальная температура - максимум температуры воздуха на высоте 2 м над землей.
R - Количество осадков - Количество выпавших осадков за период времени, мм. При наведении курсора мыши на число - период времени, за который выпало указанное количество осадков.
R24 - Количество осадков - Количество выпавших осадков за 24 часа, мм.
S - Снежный покров - Высота снежного покрова, см. При наведении курсора мыши на число - состояние снежного покрова и степень покрытия местности в баллах.